Dewpoint
72 72 72 73 73 73 72 72 73 74 74 73 73 74 73 71 71 71 72 72 69 69 69 71 70 69 65 64 63 64 64 63 64 62 63 64 66 74 74 75 75 74 73 73 73 72 73 72 72 73 73 72 72 72 72 72 72 71 71 71 71 71 71 71 72 72 72 72 71 70 71 70 70 70 71 71 71 70 70 70 70 70 70 70 71
71 72 72 73 73 74 73 72 72 72 72 73 73 73 72 72 72 72 72 73 71 71 70 67 68 67 66 64 62 60 64 61 62 60 63 65 67 74 75 75 75 74 74 73 73 73 73 72 72 73 73 73 73 72 72 72 72 72 72 73 71 71 71 70 70 71 71 72 71 71 71 71 71 70 71 71 71 71 71 71 70 70 71 71 71
72 73 72 73 74 74 73 73 71 72 73 73 74 74 73 72 73 72 73 73 73 72 72 71 70 68 65 64 63 63 62 62 58 58 57 63 67 73 75 76 75 73 73 73 73 73 73 73 73 73 73 72 72 73 73 73 73 72 72 72 72 72 71 70 70 70 70 71 71 71 70 71 71 71 71 70 70 71 71 71 71 71 72 71 71
74 74 74 74 73 73 73 74 73 72 74 73 74 74 74 75 75 75 75 74 73 72 73 69 70 66 66 64 64 63 61 61 54 55 58 63 66 71 72 74 75 74 73 73 73 73 73 73 73 73 73 72 73 72 73 73 72 72 72 72 72 72 72 72 71 71 71 71 70 71 71 72 72 71 72 72 72 72 72 72 71 71 71 72 71
74 74 74 73 74 75 74 74 74 74 75 76 75 75 74 74 74 75 74 74 73 73 72 69 66 66 65 64 63 63 63 62 61 58 58 60 63 66 70 71 72 75 74 74 74 73 74 73 73 73 73 73 72 73 73 73 73 73 73 73 72 73 73 73 72 72 72 72 72 72 72 72 72 72 72 72 72 72 71 72 71 71 71 72 72
75 75 74 72 75 75 75 74 74 75 76 77 74 73 72 73 72 72 72 72 71 72 69 69 66 64 65 64 64 64 61 60 59 58 60 60 62 65 69 70 73 74 74 74 74 74 74 74 73 73 73 73 73 73 73 72 73 73 73 73 72 73 73 73 73 72 73 72 72 73 73 73 73 72 72 72 72 72 72 72 72 72 71 72 72
76 75 74 73 73 73 75 73 75 76 73 75 74 74 74 73 72 73 73 72 71 72 71 69 67 66 66 64 63 62 62 60 60 58 61 65 65 66 68 70 70 72 73 74 74 74 74 74 73 73 73 73 73 73 73 73 73 73 73 73 73 73 73 73 73 73 73 73 72 72 73 73 72 73 73 73 73 73 73 73 73 73 72 73 73
76 75 73 73 72 73 74 76 77 75 75 76 75 74 75 74 75 74 73 70 70 70 70 68 68 66 65 64 63 63 61 60 60 57 59 65 67 66 68 71 72 71 70 71 72 74 74 73 73 71 73 73 73 73 73 73 73 73 73 73 73 73 73 73 73 73 73 73 73 72 72 72 72 72 72 72 72 72 72 72 72 73 73 73 73
76 75 74 73 72 74 73 75 77 75 75 75 74 74 75 73 75 75 74 72 69 68 68 67 65 66 65 63 63 63 62 62 58 60 61 64 66 62 66 69 70 70 73 71 73 72 74 74 73 72 72 73 73 73 73 73 73 73 73 72 73 72 73 72 72 73 73 72 73 73 73 72 73 73 72 73 72 72 71 71 71 71 72 72 72
76 75 75 73 73 74 74 76 76 75 75 75 74 74 75 75 74 75 73 72 68 68 67 65 64 63 64 60 64 60 62 62 61 60 61 62 64 65 65 64 68 69 70 71 70 72 73 74 74 74 73 73 73 73 73 73 73 72 72 73 73 72 73 73 73 73 72 72 72 72 72 72 72 72 72 72 72 72 72 72 71 71 72 73 73
76 76 75 73 73 74 76 77 77 76 76 75 74 75 74 74 72 75 75 73 70 69 68 66 64 63 62 63 64 65 63 60 62 61 58 59 60 63 59 65 64 67 71 71 70 72 72 73 73 73 74 73 73 73 73 73 72 72 72 72 73 72 72 72 72 72 72 72 72 72 72 72 72 72 72 72 72 72 72 72 72 72 72 73 73
76 76 76 74 74 74 76 77 76 76 76 75 74 74 74 74 75 73 75 73 70 69 67 65 63 62 63 64 64 64 64 61 61 60 61 61 63 63 60 61 63 64 64 67 70 70 73 74 73 71 72 74 73 73 73 73 72 72 72 72 72 72 72 72 72 72 71 71 71 71 72 71 72 72 72 72 72 72 72 72 72 72 72 72 72
76 76 76 76 77 76 77 77 76 76 76 75 75 75 74 73 72 74 71 70 69 68 65 63 64 62 64 63 65 65 63 61 59 57 57 59 62 62 62 62 62 63 64 64 65 67 73 73 73 72 72 74 74 74 73 73 73 73 72 72 72 72 72 72 72 72 71 71 71 71 71 71 71 71 71 71 71 71 71 72 72 72 72 72 72
76 77 78 78 77 76 77 77 77 76 77 77 76 76 74 72 71 71 72 69 69 65 64 64 62 59 60 61 62 62 63 61 57 57 58 58 60 63 63 59 56 59 61 63 66 67 68 69 70 72 73 73 73 74 74 74 74 73 72 72 72 71 71 71 71 71 71 71 71 71 71 71 72 72 71 71 71 72 72 72 72 72 72 72 72
76 77 78 78 77 77 77 77 78 76 76 76 77 76 75 72 72 71 69 70 68 68 67 65 59 59 64 60 58 58 60 61 59 58 54 58 59 59 60 58 57 59 61 62 63 65 64 67 69 69 68 68 69 72 72 69 74 73 72 72 73 72 71 71 71 71 71 71 71 72 72 72 72 71 71 72 72 72 72 72 73 72 72 72 72
75 76 77 77 78 77 77 76 78 78 76 76 77 76 75 73 71 71 71 68 67 66 66 65 62 59 60 58 57 56 56 59 60 59 57 57 57 57 59 59 59 61 61 61 59 64 66 67 68 69 69 69 67 66 66 66 70 72 72 73 73 73 73 71 71 71 70 70 71 71 71 71 70 70 71 70 70 71 72 72 72 72 72 72 72
74 76 76 78 78 77 77 77 77 78 77 76 76 75 74 72 73 72 72 68 66 63 66 64 65 64 63 58 55 56 56 55 52 58 56 57 57 56 59 58 58 62 59 61 62 63 62 65 68 68 69 68 67 66 65 66 67 66 69 71 73 72 72 72 71 71 70 69 69 69 69 69 68 68 68 67 67 68 69 70 70 71 71 72 71
75 75 76 77 78 78 78 77 76 77 77 76 76 75 74 73 72 72 71 71 70 64 64 66 65 66 65 64 65 60 56 57 55 56 62 58 60 57 60 58 59 61 62 62 61 62 63 63 66 67 67 66 65 64 64 64 64 64 65 65 67 69 71 71 69 67 66 67 67 67 68 68 68 67 67 67 67 67 67 68 68 69 68 69 69
73 75 76 77 77 78 78 78 76 76 77 77 76 74 72 72 72 72 71 72 71 67 67 64 66 67 64 60 62 61 60 58 57 59 59 60 58 57 58 58 57 58 59 58 58 59 61 63 61 61 65 66 65 64 65 65 64 66 65 67 69 66 68 66 67 68 66 65 64 65 65 66 67 67 67 67 66 66 67 67 67 68 68 68 67
73 75 76 76 77 77 78 78 77 76 76 77 75 73 73 73 74 73 73 73 72 68 66 64 65 66 64 64 62 63 64 61 60 58 59 59 59 57 55 57 58 56 56 56 55 58 62 63 64 63 62 65 64 63 65 64 65 65 64 71 68 69 68 67 64 64 62 64 65 65 64 64 64 65 66 66 66 66 66 66 66 66 67 67 66
74 74 76 76 76 76 78 78 77 77 77 76 74 73 74 74 75 74 73 73 72 70 69 67 64 62 65 66 64 64 62 61 62 62 59 56 55 57 58 57 57 58 58 57 56 60 60 61 62 62 63 64 65 65 63 65 64 66 67 73 71 69 70 69 68 63 62 63 63 64 64 64 64 64 65 65 65 65 65 66 66 66 66 67 66
76 75 76 76 76 76 76 77 77 74 75 75 74 74 74 74 74 74 74 73 73 71 69 68 65 64 67 66 65 64 64 62 60 59 59 61 57 55 56 57 58 58 59 58 60 58 59 60 62 61 62 63 63 63 64 64 66 64 67 74 72 71 70 70 71 68 65 64 65 65 64 64 65 65 64 65 65 64 64 64 64 65 66 66 66
73 75 75 75 76 76 75 75 76 75 75 75 75 73 72 73 73 74 74 74 73 72 71 69 68 67 67 66 65 63 62 62 61 60 60 59 58 54 51 53 53 57 60 58 60 59 61 61 60 59 63 62 61 62 63 63 67 70 75 73 73 72 72 72 71 71 69 69 68 67 66 65 65 64 64 64 64 65 65 64 64 64 64 64 64
75 72 74 73 75 75 76 75 76 75 75 75 75 74 73 73 74 74 74 74 74 72 70 68 67 68 66 64 63 62 62 61 61 62 61 60 60 59 57 59 59 58 60 62 61 59 59 61 60 60 60 60 62 63 62 64 65 74 72 73 72 72 72 72 72 72 71 71 71 70 69 68 67 66 66 66 65 64 64 64 64 64 64 64 64
74 73 73 75 75 76 76 75 75 76 76 76 75 76 75 73 74 73 73 73 73 73 70 69 67 66 64 63 63 63 62 62 61 60 61 62 62 60 56 55 58 58 60 58 58 57 58 58 60 59 59 61 61 64 64 63 61 71 71 72 72 73 72 72 72 71 71 71 71 71 70 70 69 69 70 69 68 68 68 67 66 65 65 66 66
73 74 72 74 74 76 77 77 77 77 77 77 76 76 76 75 74 74 72 74 73 72 72 70 68 68 67 65 64 62 63 63 61 61 61 60 60 59 61 59 58 55 61 61 62 58 57 59 58 62 60 61 61 61 64 62 62 74 69 65 73 72 72 72 72 71 71 70 70 70 70 70 70 70 69 69 69 69 69 68 68 68 67 67 67
73 75 75 75 76 76 77 76 76 77 77 77 76 76 76 76 75 75 74 73 73 72 71 70 66 67 68 67 66 65 63 64 61 61 61 61 62 61 62 61 55 55 57 59 61 59 55 60 58 58 62 64 64 64 64 64 68 70 68 70 66 70 71 71 71 70 70 70 69 69 69 69 69 69 69 69 69 69 69 69 69 69 68 67 68
75 75 75 75 76 76 77 76 76 75 76 76 76 75 76 75 75 75 75 73 72 72 72 70 66 68 68 68 68 62 65 63 63 62 61 63 63 63 63 62 59 56 57 58 58 58 57 58 59 60 62 63 64 64 67 64 62 68 68 67 68 70 70 70 70 70 70 69 69 69 69 68 68 68 68 69 69 69 69 69 69 69 68 68 68
74 75 76 77 77 76 76 75 76 76 76 76 76 76 76 75 74 75 74 71 72 72 71 71 68 65 67 68 68 66 66 67 66 64 65 66 64 64 63 61 62 59 58 57 58 56 56 53 53 65 63 65 67 64 66 65 67 67 66 66 66 67 70 68 69 69 69 69 68 68 67 67 68 68 68 69 68 68 68 68 68 68 69 68 68
74 74 76 77 77 77 76 76 75 76 75 75 76 76 76 75 74 74 74 73 72 72 73 72 69 67 67 68 68 66 67 67 66 65 67 68 64 64 63 63 63 61 60 58 59 58 57 57 53 61 65 67 66 66 65 65 69 69 65 65 64 67 67 66 68 68 68 68 67 67 67 67 67 67 68 68 68 68 68 68 68 68 68 68 68
75 75 76 76 76 77 77 76 76 76 76 75 76 76 76 75 74 73 74 75 74 72 73 72 69 68 67 67 69 67 68 68 67 65 66 67 65 64 64 64 64 64 63 62 58 61 59 59 58 57 62 66 62 63 65 66 67 65 65 65 65 68 67 68 67 68 67 67 67 66 66 66 66 66 66 67 68 67 67 68 68 68 68 68 68
74 75 76 76 76 75 75 75 74 75 75 74 74 75 75 75 74 72 72 75 74 73 72 72 69 68 69 68 69 69 68 68 67 66 66 67 65 64 65 65 65 65 64 62 61 61 62 58 61 64 60 65 66 65 65 66 68 70 66 65 68 68 64 64 67 67 67 66 66 66 66 65 65 65 66 67 67 67 67 68 68 68 68 67 67
74 74 76 76 76 76 75 75 74 75 75 74 75 75 75 75 74 74 74 73 73 72 73 72 69 69 70 69 68 69 69 68 67 65 65 66 66 64 65 65 63 65 64 64 62 63 63 63 61 60 63 63 65 66 65 65 67 65 67 66 67 62 64 64 65 65 66 66 66 66 65 65 65 65 65 66 66 67 67 67 67 66 66 66 66
75 74 76 75 75 76 74 75 76 75 76 76 74 74 75 74 74 73 73 73 73 73 73 73 71 69 70 69 68 69 69 69 66 65 64 64 64 62 64 64 63 64 65 64 63 62 62 65 63 63 63 63 63 66 65 63 64 67 65 65 66 64 64 64 62 68 65 67 66 66 65 65 65 65 65 65 65 66 66 66 66 65 64 65 64
75 75 75 75 76 76 76 75 76 76 76 75 75 74 75 75 74 74 74 73 73 72 72 73 72 71 70 70 68 68 69 68 67 65 64 65 64 64 65 65 65 64 66 66 65 63 63 62 64 64 64 65 63 65 65 64 65 65 65 65 64 64 64 64 62 61 65 66 65 66 65 65 65 64 64 64 64 65 64 64 63 63 63 62 61
73 75 75 75 76 77 76 76 76 76 76 75 74 74 75 75 75 75 75 74 73 73 73 73 71 71 70 70 67 67 68 69 68 66 65 65 65 65 65 66 66 65 66 67 66 65 64 63 65 63 63 65 64 65 66 65 64 65 64 66 65 63 64 65 66 65 65 65 65 65 65 65 64 64 63 63 63 63 62 62 62 62 61 61 60
72 74 75 75 76 77 76 76 76 77 76 76 74 73 74 75 75 75 76 76 75 75 74 73 72 72 70 69 67 67 69 68 68 66 66 67 66 65 65 65 66 65 65 67 67 66 65 65 64 66 65 65 64 66 66 65 65 65 68 66 66 67 66 64 63 64 66 64 65 64 64 64 64 64 64 63 63 62 62 62 61 60 60 59 57
73 73 75 75 75 76 77 76 76 77 77 76 75 74 73 73 75 76 76 76 75 75 74 73 72 72 71 70 68 67 68 68 68 67 68 67 67 66 66 66 66 67 67 67 67 67 66 65 66 64 67 64 65 65 66 66 64 65 67 68 68 67 67 67 64 61 62 63 64 64 64 64 63 63 63 63 63 62 61 61 61 60 59 57 56
72 72 74 76 76 76 77 77 76 77 77 76 75 75 74 75 75 76 75 76 75 74 74 73 71 71 70 70 69 68 68 69 67 67 68 68 67 67 67 66 67 67 66 67 68 67 67 66 65 65 64 65 65 65 68 67 67 65 64 64 65 66 68 68 68 66 62 61 62 63 61 62 64 62 60 61 62 62 61 60 59 58 58 57 56
72 72 73 75 75 75 76 76 77 77 77 76 75 75 74 74 75 76 75 75 74 74 74 73 72 70 70 69 68 68 69 69 68 68 69 69 69 68 67 67 67 67 66 65 67 66 66 66 64 63 64 64 65 65 68 69 67 66 66 64 63 63 65 68 68 67 67 65 63 58 62 63 62 62 61 61 62 61 60 60 60 60 59 57 57
73 73 73 74 75 75 75 76 76 76 76 75 74 74 74 74 74 74 75 75 74 74 74 73 72 71 70 69 68 67 70 69 68 68 67 68 69 68 68 68 68 67 66 65 66 66 66 65 65 65 63 64 64 65 65 66 64 63 66 67 65 64 64 64 66 68 67 64 62 59 59 60 60 59 59 59 59 64 63 62 61 62 60 57 58
74 74 74 74 74 74 75 75 76 76 75 76 71 64 67 74 74 74 75 75 75 74 74 73 72 72 70 69 70 68 68 67 67 67 67 67 67 67 68 69 68 68 67 66 66 66 66 65 63 64 64 63 62 64 64 66 66 67 65 66 64 64 66 65 65 65 66 63 61 61 60 60 58 59 58 58 57 58 56 55 57 57 59 59 59
75 75 74 74 73 74 74 74 74 75 75 74 66 63 64 66 73 75 74 75 75 74 74 74 73 72 72 71 71 70 69 68 69 66 66 66 66 66 67 68 67 68 67 65 65 66 65 64 64 63 62 62 63 65 65 64 65 65 65 66 65 64 63 63 61 63 65 65 63 62 61 61 61 59 59 57 57 57 56 58 59 60 58 59 59
75 75 74 74 75 74 74 74 73 74 75 68 64 63 63 64 67 74 74 74 74 74 74 73 73 73 72 71 71 71 70 69 69 70 68 65 64 64 64 66 66 66 66 67 66 65 66 65 64 63 63 63 64 65 64 61 64 65 66 65 65 64 64 62 61 59 63 65 61 59 58 59 59 57 58 57 55 54 51 59 59 57 57 58 58
75 75 75 75 75 74 74 75 73 73 73 66 63 62 63 63 64 69 74 74 73 73 73 74 73 73 73 72 72 71 71 67 67 69 70 69 63 63 63 65 66 65 64 64 66 68 67 66 64 63 63 64 64 66 66 64 66 65 66 64 66 65 64 61 59 58 61 63 61 59 57 56 56 55 53 52 51 53 51 59 55 54 55 56 57
75 75 74 74 74 75 74 74 75 74 74 66 62 60 61 62 63 66 73 74 74 73 74 73 73 73 74 73 72 72 72 71 70 69 70 70 68 67 67 67 66 67 65 63 64 67 69 66 66 65 66 67 66 66 68 67 67 65 64 63 65 63 62 61 62 63 63 60 59 58 55 53 52 50 51 52 51 52 52 52 51 52 54 55 55
74 74 74 73 73 74 73 72 72 73 72 65 60 59 59 60 62 63 73 73 74 74 74 74 74 73 74 73 73 72 72 72 70 69 70 70 69 67 67 65 65 65 66 64 63 63 64 62 64 66 66 68 68 68 70 68 67 67 67 66 65 63 63 63 61 62 61 60 60 57 54 52 52 50 50 50 48 50 50 49 52 53 53 54 55
74 73 73 74 73 72 72 72 72 72 71 63 59 59 59 59 60 68 73 73 73 74 74 74 74 74 74 74 74 73 72 72 68 63 67 71 70 69 68 67 66 65 64 65 62 62 64 63 63 63 63 65 66 71 70 66 68 68 66 63 63 62 61 60 57 53 54 55 59 55 53 53 52 46 49 50 49 49 49 47 49 52 53 54 54
73 73 74 72 72 71 72 73 72 72 71 66 58 57 58 58 61 71 72 72 73 73 73 73 73 73 73 74 74 73 72 73 66 61 63 66 70 70 70 69 67 65 65 65 64 62 62 60 59 60 60 60 59 58 59 62 71 65 63 60 60 57 59 57 55 53 52 50 51 55 52 48 50 49 47 47 49 47 47 48 49 53 54 53 52
72 72 73 73 73 72 72 72 71 71 71 67 57 56 57 57 63 71 72 71 72 72 73 72 72 72 72 69 72 73 73 73 61 59 61 66 70 70 69 67 67 66 65 64 64 66 60 60 60 60 61 61 61 61 61 60 60 63 62 59 56 53 55 54 52 51 47 49 50 51 52 48 48 49 47 47 48 46 44 47 48 50 51 50 51
73 73 73 72 72 72 70 70 66 69 71 67 56 56 56 56 63 72 72 71 72 71 72 71 72 72 72 69 66 69 71 71 58 58 59 63 69 70 69 68 67 66 66 65 65 65 66 66 67 66 66 64 68 68 66 62 63 63 61 60 55 53 51 51 47 48 49 50 55 56 52 49 47 44 45 44 43 43 45 47 47 50 50 49 50